When you browse on this site, cookies collect data to enhance your experience and personalize the content and advertising you see.
Visit our Privacy Policy to learn more. By continuing to use the site, you agree to this use of cookies and data.
  • In Czech Republic
  • List of Countries
  • For 7 days
  • Water Temperature
  • Satellite Maps
  • Weather Map
  • Weather Widgets
  • user-avatar
    Login

    Hourly Weather Lewis

    Today, 13 December, Thursday

    Time Temperature Precipitation Wind Pressure Humidity
    00:00 +5°C° 0 mm 12 mps 748 mmHg 74%
    01:00 +4°C° 0 mm 12 mps 748 mmHg 74%
    02:00 +4°C° 0 mm 13 mps 748 mmHg 73%
    03:00 +3°C° 0 mm 13 mps 748 mmHg 72%
    04:00 +3°C° 0 mm 13 mps 748 mmHg 70%
    05:00 +3°C° 0 mm 13 mps 748 mmHg 68%
    06:00 +1°C° 0 mm 14 mps 748 mmHg 66%
    07:00 +1°C° 0 mm 14 mps 748 mmHg 66%
    08:00 +1°C° 0 mm 14 mps 748 mmHg 66%
    09:00 +1°C° 0 mm 14 mps 748 mmHg 66%
    10:00 +1°C° 0 mm 15 mps 748 mmHg 67%
    11:00 +1°C° 0 mm 15 mps 748 mmHg 67%
    12:00 +2°C° 0 mm 15 mps 749 mmHg 68%
    13:00 +3°C° 0.1 mm 14 mps 749 mmHg 70%
    14:00 +3°C° 0.1 mm 14 mps 749 mmHg 71%
    15:00 +3°C° 0.1 mm 14 mps 749 mmHg 72%
    16:00 +3°C° 0.2 mm 14 mps 750 mmHg 73%
    17:00 +3°C° 0.2 mm 14 mps 750 mmHg 74%
    18:00 +3°C° 0.2 mm 14 mps 750 mmHg 75%
    19:00 +3°C° 0.2 mm 14 mps 751 mmHg 76%
    20:00 +3°C° 0.2 mm 14 mps 751 mmHg 77%
    21:00 +3°C° 0.2 mm 14 mps 751 mmHg 77%
    22:00 +3°C° 0.1 mm 13 mps 752 mmHg 78%
    23:00 +3°C° 0.1 mm 13 mps 752 mmHg 78%

    Tomorrow, 14 December, Friday

    Time Temperature Precipitation Wind Pressure Humidity
    00:00 +3°C° 0.1 mm 13 mps 752 mmHg 79%
    01:00 +4°C° 0 mm 13 mps 752 mmHg 78%
    02:00 +4°C° 0 mm 12 mps 752 mmHg 78%
    03:00 +4°C° 0 mm 12 mps 752 mmHg 77%
    04:00 +3°C° 0.1 mm 12 mps 752 mmHg 78%
    05:00 +3°C° 0.1 mm 12 mps 752 mmHg 78%
    06:00 +3°C° 0.1 mm 12 mps 753 mmHg 78%
    07:00 +3°C° 0 mm 12 mps 752 mmHg 77%
    08:00 +3°C° 0 mm 12 mps 752 mmHg 76%
    09:00 +2°C° 0 mm 12 mps 752 mmHg 75%
    10:00 +2°C° 0 mm 12 mps 752 mmHg 73%
    11:00 +1°C° 0 mm 13 mps 751 mmHg 71%
    12:00 +1°C° 0 mm 13 mps 751 mmHg 68%
    13:00 +1°C° 0 mm 14 mps 750 mmHg 67%
    14:00 +1°C° 0 mm 14 mps 750 mmHg 67%
    15:00 +1°C° 0 mm 15 mps 750 mmHg 66%
    16:00 +1°C° 0 mm 15 mps 749 mmHg 67%
    17:00 +1°C° 0 mm 15 mps 749 mmHg 69%
    18:00 +1°C° 0 mm 16 mps 748 mmHg 70%
    19:00 +1°C° 0.4 mm 16 mps 748 mmHg 73%
    20:00 +2°C° 0.4 mm 16 mps 747 mmHg 75%
    21:00 +2°C° 0.4 mm 16 mps 747 mmHg 77%
    22:00 +2°C° 0.3 mm 16 mps 747 mmHg 78%
    23:00 +2°C° 0.3 mm 16 mps 746 mmHg 79%

    Day after tomorrow, 15 December, Saturday

    Time Temperature Precipitation Wind Pressure Humidity
    00:00 +2°C° 0.3 mm 16 mps 746 mmHg 79%
    01:00 +4°C° 0.3 mm 15 mps 746 mmHg 80%
    02:00 +4°C° 0.3 mm 15 mps 746 mmHg 80%
    03:00 +4°C° 0.3 mm 15 mps 746 mmHg 80%
    04:00 +4°C° 0.6 mm 14 mps 746 mmHg 80%
    05:00 +4°C° 0.6 mm 14 mps 746 mmHg 80%
    06:00 +3°C° 0.6 mm 13 mps 745 mmHg 80%
    07:00 +3°C° 0.5 mm 13 mps 745 mmHg 80%
    08:00 +3°C° 0.5 mm 12 mps 745 mmHg 80%
    09:00 +3°C° 0.5 mm 12 mps 745 mmHg 80%
    10:00 +2°C° 1.2 mm 12 mps 745 mmHg 80%
    11:00 +2°C° 1.2 mm 12 mps 745 mmHg 80%
    12:00 +2°C° 1.2 mm 12 mps 744 mmHg 80%
    13:00 0°C° 1.6 mm 12 mps 744 mmHg 81%
    14:00 0°C° 1.6 mm 12 mps 743 mmHg 82%
    15:00 +1°C° 1.6 mm 11 mps 742 mmHg 83%
    16:00 +1°C° 1.2 mm 11 mps 742 mmHg 82%
    17:00 +1°C° 1.2 mm 11 mps 741 mmHg 81%
    18:00 +1°C° 1.2 mm 10 mps 740 mmHg 80%
    19:00 +1°C° 0.4 mm 10 mps 739 mmHg 80%
    20:00 +1°C° 0.4 mm 9 mps 738 mmHg 80%
    21:00 +2°C° 0.4 mm 8 mps 737 mmHg 80%
    22:00 +2°C° 0.8 mm 8 mps 736 mmHg 80%
    23:00 +2°C° 0.8 mm 8 mps 735 mmHg 80%

    16 December, Sunday

    Time Temperature Precipitation Wind Pressure Humidity
    00:00 +2°C° 0.8 mm 8 mps 734 mmHg 81%
    01:00 +4°C° 1.6 mm 8 mps 733 mmHg 81%
    02:00 +3°C° 1.6 mm 9 mps 731 mmHg 80%
    03:00 +3°C° 1.6 mm 10 mps 730 mmHg 80%
    04:00 +3°C° 0.6 mm 9 mps 729 mmHg 81%
    05:00 +4°C° 0.6 mm 8 mps 729 mmHg 82%
    06:00 +4°C° 0.6 mm 8 mps 728 mmHg 83%
    07:00 +4°C° 0.9 mm 7 mps 728 mmHg 84%
    08:00 +5°C° 0.9 mm 7 mps 727 mmHg 85%
    09:00 +5°C° 0.9 mm 6 mps 727 mmHg 86%
    10:00 +5°C° 0.7 mm 6 mps 727 mmHg 88%
    11:00 +4°C° 0.7 mm 6 mps 726 mmHg 90%
    12:00 +4°C° 0.7 mm 6 mps 726 mmHg 92%
    13:00 +4°C° 1 mm 7 mps 726 mmHg 90%
    14:00 +5°C° 1 mm 8 mps 726 mmHg 89%
    15:00 +5°C° 1 mm 9 mps 726 mmHg 88%
    16:00 +4°C° 0.7 mm 11 mps 727 mmHg 82%
    17:00 +4°C° 0.7 mm 14 mps 728 mmHg 75%
    18:00 +4°C° 0.7 mm 16 mps 729 mmHg 68%
    19:00 +4°C° 0.2 mm 15 mps 730 mmHg 68%
    20:00 +4°C° 0.2 mm 14 mps 731 mmHg 68%
    21:00 +4°C° 0.2 mm 13 mps 732 mmHg 67%
    22:00 +4°C° 0.1 mm 12 mps 733 mmHg 69%
    23:00 +4°C° 0.1 mm 12 mps 735 mmHg 71%

    17 December, Monday

    Time Temperature Precipitation Wind Pressure Humidity
    00:00 +4°C° 0.1 mm 11 mps 736 mmHg 73%
    01:00 +5°C° 0.2 mm 10 mps 736 mmHg 73%
    02:00 +5°C° 0.2 mm 10 mps 737 mmHg 73%
    03:00 +5°C° 0.2 mm 10 mps 738 mmHg 73%
    04:00 +5°C° 0.1 mm 9 mps 739 mmHg 73%
    05:00 +5°C° 0.1 mm 9 mps 739 mmHg 73%
    06:00 +5°C° 0.1 mm 8 mps 740 mmHg 73%
    07:00 +5°C° 0 mm 8 mps 740 mmHg 74%
    08:00 +5°C° 0 mm 8 mps 741 mmHg 74%
    09:00 +5°C° 0 mm 8 mps 741 mmHg 75%
    10:00 +5°C° 0 mm 9 mps 742 mmHg 76%
    11:00 +5°C° 0 mm 10 mps 742 mmHg 77%
    12:00 +4°C° 0 mm 11 mps 742 mmHg 77%
    13:00 +4°C° 0 mm 11 mps 742 mmHg 77%
    14:00 +4°C° 0 mm 12 mps 741 mmHg 76%
    15:00 +4°C° 0 mm 12 mps 741 mmHg 75%
    16:00 +4°C° 0.1 mm 13 mps 740 mmHg 74%
    17:00 +4°C° 0.1 mm 14 mps 738 mmHg 74%
    18:00 +4°C° 0.1 mm 15 mps 737 mmHg 73%
    19:00 +4°C° 1.6 mm 16 mps 736 mmHg 73%
    20:00 +3°C° 1.6 mm 17 mps 735 mmHg 74%
    21:00 +5°C° 1.6 mm 18 mps 734 mmHg 75%
    22:00 +5°C° 0.8 mm 18 mps 733 mmHg 75%
    23:00 +6°C° 0.8 mm 19 mps 732 mmHg 74%

    18 December, Tuesday

    Time Temperature Precipitation Wind Pressure Humidity
    00:00 +6°C° 0.8 mm 19 mps 731 mmHg 74%
    01:00 +7°C° 0.6 mm 18 mps 730 mmHg 75%
    02:00 +7°C° 0.6 mm 17 mps 729 mmHg 77%
    03:00 +7°C° 0.6 mm 16 mps 729 mmHg 79%
    04:00 +8°C° 1.7 mm 15 mps 728 mmHg 83%
    05:00 +7°C° 1.7 mm 13 mps 728 mmHg 87%
    06:00 +5°C° 1.7 mm 12 mps 727 mmHg 91%
    07:00 +6°C° 1.2 mm 10 mps 727 mmHg 87%
    08:00 +5°C° 1.2 mm 9 mps 728 mmHg 84%
    09:00 +5°C° 1.2 mm 7 mps 728 mmHg 81%
    10:00 +5°C° 0.5 mm 8 mps 728 mmHg 81%
    11:00 +5°C° 0.5 mm 8 mps 728 mmHg 81%
    12:00 +5°C° 0.5 mm 8 mps 729 mmHg 80%
    13:00 +5°C° 0.1 mm 9 mps 729 mmHg 80%
    14:00 +5°C° 0.1 mm 9 mps 729 mmHg 79%
    15:00 +6°C° 0.1 mm 9 mps 729 mmHg 79%
    16:00 +6°C° 0 mm 9 mps 729 mmHg 78%
    17:00 +5°C° 0 mm 10 mps 729 mmHg 78%
    18:00 +5°C° 0 mm 10 mps 729 mmHg 78%
    19:00 +5°C° 0 mm 10 mps 730 mmHg 78%
    20:00 +6°C° 0 mm 10 mps 730 mmHg 77%
    21:00 +6°C° 0 mm 10 mps 730 mmHg 77%
    22:00 +5°C° 0 mm 10 mps 730 mmHg 77%
    23:00 +5°C° 0 mm 10 mps 730 mmHg 77%
    Show more